Temperature
6 6 6 5 5 5 5 4 4 3 3 4 4 4 4 4 4 4 4 4 4 4 4 4 4 4 3 3 3 3 3 3 3 3 3 3 3 3
6 5 5 5 5 5 4 4 4 3 3 3 3 3 3 3 3 3 3 3 3 3 3 3 3 3 3 3 3 3 3 3 3 3 3 3 3 3
5 5 5 5 4 4 4 4 3 3 3 3 3 3 3 3 3 3 3 3 3 3 2 2 2 2 2 2 2 2 2 2 2 2 2 2 2 2
4 4 4 4 4 4 3 3 3 3 2 2 3 2 2 2 2 2 2 2 2 2 2 2 2 2 2 2 1 1 1 1 1 1 1 1 1 1
4 4 4 3 3 3 3 3 2 2 2 2 2 2 2 1 1 1 1 1 1 1 1 1 1 1 1 1 1 1 1 1 1 1 1 1 1 1
4 3 3 3 3 3 2 2 2 2 1 1 1 1 1 1 0 1 1 1 1 1 1 0 0 0 0 0 0 0 0 0 -0 -0 -0 -0 -0 0
3 3 3 2 2 2 2 1 1 1 1 1 0 0 0 0 -0 -0 -0 0 0 0 0 0 -0 -0 -0 -0 -0 -1 -1 -1 -1 -1 -1 -1 -1 -1
3 3 3 2 2 1 1 1 1 1 0 0 -0 -0 -0 -1 -1 -1 -1 -1 -1 -1 -1 -0 -1 -1 -1 -1 -1 -1 -1 -1 -1 -1 -1 -1 -1 -1
3 2 2 2 2 1 1 1 1 0 -0 -0 -1 -0 -1 -1 -2 -2 -2 -2 -2 -2 -2 -1 -1 -1 -1 -1 -1 -2 -2 -2 -2 -2 -2 -2 -2 -2
2 2 2 2 1 1 0 0 0 0 -0 -1 -1 -1 -1 -2 -2 -2 -3 -3 -2 -3 -3 -3 -2 -2 -2 -2 -2 -2 -2 -2 -3 -3 -3 -3 -3 -3
2 2 1 1 1 -0 -0 -0 -0 -0 -1 -1 -1 -2 -2 -2 -3 -3 -3 -3 -3 -3 -3 -4 -3 -3 -2 -2 -2 -3 -3 -3 -3 -3 -3 -3 -3 -3
1 1 1 0 0 -0 -1 -1 -1 -1 -1 -2 -2 -2 -2 -3 -3 -3 -4 -4 -4 -4 -4 -4 -4 -4 -4 -3 -3 -3 -3 -3 -3 -4 -4 -4 -4 -4
1 1 0 -0 -0 -1 -1 -1 -1 -2 -2 -2 -2 -3 -3 -3 -3 -4 -4 -4 -5 -5 -5 -5 -5 -5 -6 -5 -3 -3 -4 -4 -4 -4 -4 -4 -4 -4
0 -0 -0 -1 -1 -1 -2 -2 -2 -2 -3 -3 -3 -3 -3 -4 -4 -4 -4 -5 -5 -5 -5 -6 -6 -6 -6 -6 -5 -4 -4 -4 -4 -4 -4 -4 -4 -4
-1 -1 -1 -1 -2 -2 -2 -2 -3 -3 -3 -3 -3 -3 -4 -4 -4 -5 -5 -5 -5 -5 -5 -5 -6 -6 -6 -6 -6 -6 -5 -5 -5 -5 -5 -5 -5 -5
-1 -1 -2 -2 -2 -2 -2 -3 -3 -3 -4 -4 -4 -4 -4 -5 -5 -5 -5 -5 -5 -5 -5 -6 -6 -6 -6 -6 -7 -6 -6 -6 -6 -6 -5 -5 -5 -5
-2 -2 -2 -2 -2 -3 -3 -3 -3 -4 -4 -4 -5 -5 -5 -5 -5 -5 -6 -6 -6 -6 -5 -6 -6 -6 -7 -7 -6 -6 -6 -6 -6 -6 -6 -6 -5 -5
-2 -3 -3 -3 -3 -3 -4 -4 -4 -4 -4 -5 -5 -5 -5 -5 -6 -6 -6 -6 -6 -6 -6 -6 -7 -7 -7 -7 -6 -7 -7 -7 -7 -7 -7 -7 -6 -5
-3 -3 -3 -3 -4 -4 -4 -4 -5 -5 -5 -5 -5 -5 -5 -6 -6 -6 -6 -6 -7 -7 -7 -7 -7 -8 -8 -8 -7 -7 -7 -7 -7 -7 -7 -7 -7 -6
-3 -3 -4 -4 -4 -4 -5 -5 -5 -5 -5 -5 -5 -6 -6 -6 -6 -6 -7 -7 -7 -7 -7 -7 -8 -8 -9 -9 -8 -7 -7 -8 -8 -8 -7 -7 -7 -6
-3 -4 -4 -4 -5 -5 -5 -5 -5 -5 -5 -6 -6 -6 -6 -6 -6 -7 -7 -7 -7 -7 -7 -7 -8 -8 -9 -9 -9 -7 -7 -8 -8 -8 -8 -8 -8 -7
-4 -4 -4 -4 -5 -5 -5 -6 -6 -6 -6 -6 -6 -6 -6 -6 -7 -7 -7 -7 -7 -8 -8 -8 -8 -8 -8 -9 -9 -8 -8 -7 -7 -8 -8 -8 -9 -9
-4 -4 -5 -5 -5 -5 -5 -6 -6 -6 -6 -6 -6 -6 -6 -7 -7 -7 -7 -7 -8 -8 -8 -8 -8 -8 -8 -9 -9 -9 -8 -8 -8 -8 -7 -7 -8 -8
Wind_Speed
2 2 2 2 1 1 1 1 2 3 3 2 0 1 2 2 5 6 7 10 11 11 11 10 10 10 10 10 11 11 11 11 12 12 12 12 12 12
2 2 2 2 2 2 2 2 2 3 4 2 2 2 2 4 7 7 8 10 10 11 10 10 10 9 9 9 10 10 10 11 12 12 12 12 13 12
3 3 3 3 3 2 2 2 3 3 5 4 3 3 2 3 6 7 9 9 9 10 11 10 10 10 10 9 9 10 11 11 12 13 13 13 13 13
4 4 4 3 3 3 3 3 4 4 4 6 5 3 4 3 4 4 6 8 8 10 10 10 9 9 10 10 9 10 10 11 12 13 13 13 13 13
4 4 4 4 4 4 4 4 4 4 4 5 5 3 3 3 4 4 5 5 8 8 8 8 9 10 10 10 9 10 10 11 12 12 13 13 13 13
4 5 4 5 5 5 5 5 4 4 4 4 5 4 4 3 2 3 4 4 5 6 7 8 9 10 10 10 10 10 10 11 12 12 12 12 13 14
5 5 5 6 7 6 5 4 4 4 4 4 5 4 4 3 3 2 4 4 5 2 3 5 6 6 7 9 10 10 11 12 12 13 13 13 14 14
5 5 5 6 8 10 10 8 7 6 5 5 5 5 5 4 3 3 3 3 4 3 4 6 3 4 4 6 9 10 11 12 12 13 13 14 14 14
5 5 5 5 7 5 8 10 9 11 10 6 6 6 5 4 3 3 3 4 5 4 4 5 3 4 5 8 10 11 11 11 12 13 13 14 14 15
6 6 5 5 5 5 5 5 6 7 8 6 6 6 5 4 3 3 4 4 4 3 2 4 3 4 5 7 10 9 9 11 12 13 14 14 15 15
5 5 5 5 9 9 6 6 6 6 8 10 11 10 10 9 6 2 2 3 4 3 1 2 3 4 4 4 5 7 9 12 13 14 15 15 15 15
4 5 7 8 9 9 6 6 7 6 5 5 5 7 6 7 8 4 3 4 3 3 1 1 2 3 4 3 2 5 8 11 13 14 15 15 16 11
4 4 5 9 10 10 8 6 9 7 4 4 4 4 3 3 3 4 4 4 5 5 2 1 2 2 3 4 4 3 4 5 8 11 14 15 16 12
5 4 5 9 10 10 8 8 10 8 4 3 4 4 4 4 4 4 5 6 7 6 6 3 3 3 3 5 5 4 5 5 6 6 8 13 14 15
5 7 8 10 9 8 9 10 8 5 4 5 5 5 4 4 3 2 3 3 4 6 7 6 4 4 4 6 6 6 7 6 5 5 6 7 7 8
5 7 9 9 7 7 7 6 5 5 5 5 5 4 3 3 3 3 3 2 3 4 5 7 7 5 6 7 8 9 7 5 6 7 8 8 7 8
4 3 3 4 4 4 4 4 4 4 5 4 4 4 4 4 3 3 3 3 4 4 4 3 5 6 7 7 7 8 8 7 7 7 8 9 8 7
6 4 5 5 6 5 5 5 4 5 5 5 5 5 5 4 4 3 3 4 5 5 5 3 3 3 3 5 9 8 7 7 7 7 7 9 10 8
6 6 6 6 6 5 5 5 5 5 4 5 5 5 4 4 4 4 4 4 5 5 4 3 3 3 5 6 4 6 5 6 6 7 7 7 10 11
5 6 6 6 5 5 5 5 5 4 5 5 5 5 5 5 5 5 4 5 5 4 4 4 4 4 5 5 5 5 8 7 6 8 8 8 9 12
6 6 6 6 5 5 5 5 5 5 5 5 5 5 5 5 5 5 5 7 6 4 5 5 5 5 3 2 5 6 5 9 10 8 8 8 9 8
6 6 6 6 5 5 5 5 5 5 5 5 5 5 5 5 5 5 5 5 4 4 5 4 3 2 2 4 6 8 8 8 10 14 13 11 6 5
6 5 5 5 5 5 5 6 6 6 6 5 5 5 5 4 4 4 5 4 4 4 4 3 3 3 4 5 6 7 9 9 8 8 8 11 14 17
Wind_Direction
243 247 247 257 248 255 267 230 238 281 288 260 270 277 325 324 325 324 319 316 318 318 320 325 327 331 332 334 335 335 335 332 330 326 324 324 323 322
234 240 250 253 242 230 238 252 233 233 266 284 277 290 316 325 320 319 312 313 314 315 316 318 320 325 329 332 335 334 334 333 333 328 324 323 322 321
243 235 242 247 248 236 230 237 241 235 259 281 285 295 304 306 316 313 311 307 307 312 314 315 317 322 325 328 330 334 335 335 335 332 328 325 324 323
244 242 243 241 246 244 238 238 240 237 245 270 288 295 289 289 299 305 311 312 310 311 315 316 320 326 327 325 327 330 333 333 333 333 332 330 328 325
235 240 244 238 244 243 240 242 246 251 244 257 275 284 289 297 307 310 310 311 312 312 315 321 323 324 325 323 324 325 328 328 329 328 329 330 330 329
235 235 237 237 244 244 244 242 244 252 256 257 268 278 283 290 298 303 312 314 314 313 314 320 319 322 322 321 322 323 323 323 324 325 323 324 325 324
245 242 237 235 239 243 246 240 240 247 254 257 265 275 278 291 286 288 299 311 309 304 325 315 311 305 307 312 317 319 321 322 323 323 321 321 322 322
247 247 245 241 245 252 255 253 244 242 244 249 259 263 269 271 279 293 301 320 309 321 332 308 302 293 292 297 308 316 318 320 322 322 320 320 321 321
246 247 254 249 248 243 256 260 260 259 254 248 250 253 258 263 276 288 285 282 275 286 314 294 288 287 291 303 310 312 315 320 322 321 321 320 319 320
247 245 246 251 245 239 240 249 252 256 257 253 247 250 250 247 238 255 265 284 281 279 274 278 292 290 299 299 305 307 315 320 322 322 321 321 320 318
253 252 247 247 255 252 243 248 258 259 257 252 253 256 261 267 264 256 272 287 291 288 273 271 296 310 298 286 301 314 318 321 321 322 324 323 321 320
255 255 255 255 260 259 245 242 256 260 255 262 258 260 259 262 264 238 223 247 270 281 275 296 299 335 315 294 297 313 314 314 319 322 323 323 324 323
255 257 255 263 265 265 261 247 254 259 250 244 246 247 242 239 245 237 223 225 238 252 253 279 281 289 273 297 298 288 292 304 314 316 318 320 322 322
252 255 257 266 267 265 264 258 263 267 254 244 245 245 242 240 233 231 230 232 234 243 249 235 237 254 280 291 290 299 303 299 302 304 307 315 318 318
256 262 269 270 272 267 260 261 262 255 243 246 249 246 236 232 223 225 234 248 256 259 257 250 237 250 255 268 280 293 305 302 296 301 307 307 305 308
266 268 274 273 264 259 263 261 247 239 238 243 249 245 232 223 218 213 229 244 266 272 260 254 247 238 257 263 270 280 284 286 301 305 305 301 298 297
271 264 259 258 250 249 248 244 235 237 245 238 239 240 235 232 230 216 223 235 248 266 278 272 267 258 249 255 267 270 276 280 285 298 305 305 299 294
268 258 258 254 252 253 252 249 238 236 238 238 238 237 235 232 233 226 226 236 251 262 269 273 284 292 283 263 241 258 268 275 287 294 297 300 300 299
258 254 255 255 255 253 250 248 247 241 233 235 238 236 233 232 230 231 232 239 249 258 262 259 257 260 284 293 274 236 257 283 293 295 291 289 292 297
243 250 254 253 253 252 250 249 247 241 235 237 236 233 230 231 231 230 229 235 247 256 263 255 245 245 256 270 278 280 274 275 284 290 294 293 288 291
248 248 249 249 250 250 249 248 246 243 239 236 232 228 228 228 230 228 230 240 245 250 257 260 254 265 264 268 281 284 282 277 279 282 290 298 301 300
253 252 249 247 247 247 248 247 247 243 238 234 230 226 223 222 225 224 227 234 240 246 256 263 260 265 254 261 277 288 297 301 299 294 284 273 279 289
253 254 255 252 249 247 245 245 245 243 236 228 224 222 218 220 221 221 224 228 236 245 256 270 274 266 264 264 276 288 295 302 307 309 300 293 289 282
Height
1506 1506 1505 1505 1504 1504 1503 1503 1502 1499 1497 1496 1495 1494 1493 1491 1490 1487 1485 1484 1482 1480 1478 1476 1475 1473 1471 1469 1467 1465 1464 1462 1460 1459 1457 1456 1454 1453
1503 1502 1502 1501 1501 1500 1500 1499 1498 1497 1495 1493 1492 1491 1489 1487 1486 1484 1482 1480 1478 1476 1474 1472 1471 1469 1467 1465 1463 1461 1459 1458 1456 1454 1452 1450 1449 1448
1499 1499 1498 1498 1497 1496 1495 1495 1494 1493 1490 1488 1488 1486 1485 1483 1482 1480 1478 1476 1474 1472 1470 1468 1466 1465 1463 1461 1459 1457 1455 1453 1451 1449 1447 1445 1444 1442
1495 1495 1494 1494 1493 1492 1491 1490 1489 1488 1487 1484 1483 1482 1481 1479 1477 1476 1474 1472 1470 1468 1466 1464 1462 1460 1458 1456 1454 1452 1451 1449 1447 1444 1443 1441 1439 1437
1491 1490 1490 1489 1488 1487 1486 1485 1485 1484 1482 1480 1478 1478 1476 1475 1473 1471 1470 1468 1466 1464 1462 1460 1458 1456 1454 1452 1450 1448 1446 1444 1442 1440 1438 1436 1434 1432
1487 1486 1485 1485 1484 1483 1482 1481 1480 1479 1478 1476 1474 1473 1472 1470 1469 1467 1465 1463 1462 1460 1458 1456 1454 1452 1450 1448 1446 1444 1442 1440 1438 1436 1434 1432 1429 1427
1482 1482 1481 1480 1479 1478 1477 1476 1475 1474 1473 1471 1469 1468 1466 1465 1464 1462 1460 1458 1457 1455 1453 1452 1450 1448 1446 1444 1442 1440 1437 1435 1434 1431 1429 1427 1425 1422
1477 1477 1476 1475 1474 1473 1472 1471 1470 1469 1468 1466 1465 1463 1462 1461 1460 1458 1456 1454 1451 1451 1449 1447 1446 1443 1441 1440 1438 1435 1433 1431 1429 1427 1425 1423 1420 1418
1472 1472 1471 1470 1469 1468 1467 1466 1465 1464 1463 1462 1460 1459 1458 1457 1456 1454 1452 1450 1448 1447 1444 1441 1441 1439 1437 1435 1433 1431 1429 1427 1425 1423 1420 1418 1415 1413
1468 1467 1466 1465 1464 1463 1461 1460 1459 1458 1457 1456 1455 1454 1453 1452 1451 1450 1448 1446 1444 1443 1441 1437 1436 1434 1433 1431 1429 1427 1425 1423 1421 1418 1416 1413 1411 1408
1463 1462 1461 1459 1459 1458 1456 1454 1453 1452 1452 1451 1450 1449 1448 1448 1447 1446 1444 1442 1439 1438 1438 1435 1431 1429 1427 1426 1425 1423 1421 1419 1417 1414 1411 1409 1406 1403
1457 1456 1455 1454 1453 1452 1451 1449 1448 1447 1446 1445 1445 1444 1443 1442 1442 1441 1440 1438 1436 1434 1433 1432 1429 1426 1423 1421 1420 1419 1417 1415 1412 1410 1407 1404 1401 1398
1451 1451 1450 1449 1448 1447 1446 1444 1443 1442 1441 1440 1439 1438 1438 1437 1437 1436 1435 1434 1433 1431 1430 1428 1426 1424 1422 1417 1415 1414 1413 1410 1407 1405 1402 1400 1397 1394
1446 1445 1444 1443 1442 1441 1440 1439 1438 1437 1435 1434 1433 1433 1432 1432 1431 1431 1430 1429 1428 1427 1426 1425 1423 1421 1418 1414 1411 1409 1408 1406 1403 1400 1398 1395 1392 1390
1440 1439 1438 1437 1436 1435 1434 1433 1432 1431 1430 1429 1428 1427 1427 1427 1426 1426 1425 1424 1423 1422 1421 1420 1419 1417 1415 1412 1408 1406 1403 1401 1399 1396 1393 1390 1387 1384
1435 1434 1433 1431 1430 1429 1428 1427 1426 1426 1425 1424 1423 1423 1422 1422 1421 1421 1420 1419 1418 1417 1417 1416 1414 1413 1410 1408 1406 1402 1400 1397 1394 1392 1388 1385 1383 1380
1429 1428 1426 1425 1424 1423 1422 1421 1421 1420 1419 1419 1418 1418 1417 1417 1416 1416 1415 1414 1413 1412 1411 1411 1410 1408 1406 1404 1401 1398 1396 1393 1391 1388 1384 1380 1377 1375
1423 1421 1420 1419 1418 1417 1416 1415 1415 1414 1414 1414 1413 1413 1412 1412 1411 1411 1410 1409 1408 1407 1407 1406 1405 1403 1401 1399 1398 1394 1392 1389 1386 1384 1380 1376 1371 1370
1418 1416 1415 1414 1413 1412 1411 1410 1409 1409 1409 1408 1408 1408 1407 1407 1406 1406 1405 1405 1404 1403 1402 1402 1400 1399 1397 1394 1392 1392 1388 1385 1382 1379 1376 1372 1367 1364
1411 1410 1409 1408 1407 1406 1405 1404 1404 1403 1403 1403 1402 1402 1402 1402 1401 1401 1401 1400 1399 1399 1398 1397 1397 1395 1394 1392 1388 1386 1386 1382 1378 1374 1371 1367 1364 1360
1406 1405 1404 1403 1402 1401 1400 1399 1399 1398 1398 1397 1397 1397 1397 1397 1396 1396 1396 1395 1395 1394 1393 1393 1392 1392 1390 1388 1385 1381 1380 1379 1375 1371 1367 1363 1358 1354
1400 1399 1398 1397 1396 1395 1394 1393 1393 1392 1392 1392 1392 1392 1392 1392 1392 1392 1391 1391 1391 1390 1389 1389 1388 1387 1386 1384 1381 1378 1375 1374 1372 1369 1365 1362 1358 1352
1394 1393 1392 1391 1390 1389 1388 1388 1387 1387 1387 1387 1387 1387 1387 1387 1387 1387 1387 1387 1386 1386 1385 1385 1384 1383 1381 1380 1378 1375 1372 1369 1366 1363 1361 1359 1355 1351